Regional Weather Roundup
Issued by NWS

Home | Current Version | Previous Version | Text Only | Print | Product List | Glossary Off
Versions: 1 2 3 4 5 6 7 8 9 10 11 12 13 14 15 16 17 18 19 20 21 22 23 24 25 26 27 28 29 30 31 32 33 34 35 36 37 38 39 40 41 42 43 44 45 46 47 48 49 50

436
ASUS44 KLIX 181812
RWRLA
LOUISIANA WEATHER ROUNDUP
NATIONAL WEATHER SERVICE NEW ORLEANS LA
100 PM CDT SAT APR 18 2015

NOTE: "FAIR" INDICATES FEW OR NO CLOUDS BELOW 12,000 FEET WITH NO
      SIGNIFICANT WEATHER AND/OR OBSTRUCTIONS TO VISIBILITY.
      SKY/WX - SKY CONDITION AND SIGNIFICANT WEATHER.
      TMP - AIR TEMPERATURE.    DP   - DEWPOINT TEMPERATURE.
      RH  - RELATIVE HUMIDITY.  PRES - PRESSURE.
      HX  - HEAT INDEX.         WCI  - WIND CHILL INDEX.

*  THESE STATIONS ARE NOT NWS OR FAA STATIONS AND ARE NOT UNDER
   NWS QUALITY CONTROL.

LAZ040-048-061>063-065-066-069-181900-
SOUTHEAST LOUISIANA

CITY           SKY/WX    TMP DP  RH WIND       PRES   REMARKS
N.O. AUDUBON     N/A     75  73  94 MISG        N/A
6HR MIN TEMP:  67; 6HR MAX TEMP:  75; 6HR PCP:  0.53;

N.O. INTL ARPT CLOUDY    74  68  81 SE10      29.88F
6HR MIN TEMP:  70; 6HR MAX TEMP:  74; 6HR PCP:  0.67;

N.O. LAKEFRONT CLOUDY    76  69  79 SE16      29.89F
6HR MIN TEMP:  72; 6HR MAX TEMP:  76; 6HR PCP:  0.58;

SLIDELL        CLOUDY    75  70  84 SE10      29.89F
6HR MIN TEMP:  69; 6HR MAX TEMP:  75; 6HR PCP:  0.49;

BATON ROUGE    CLOUDY    79  70  74 SE10      29.87F
6HR MIN TEMP:  69; 6HR MAX TEMP:  79; 6HR PCP:  0.11;

BOOTHVILLE     LGT RAIN  70  70 100 E10G21    29.91F FOG
6HR MIN TEMP:  69; 6HR MAX TEMP:  71; 6HR PCP:  0.64;

BELLE CHASSE   CLOUDY    73  69  87 SE14      29.88F
6HR MIN TEMP:  69; 6HR MAX TEMP:  73;

BOGALUSA*        N/A     77  67  71 S6        29.91F
6HR MIN TEMP:  70; 6HR MAX TEMP:  77; 6HR PCP:  0.09;

GALLIANO*      CLOUDY    73  69  88 E3        29.88F
6HR MIN TEMP:  67; 6HR MAX TEMP:  73; 6HR PCP:  0.40;

NEW ROADS*     MOCLDY    74  68  80 SE6       29.87F
6HR MIN TEMP:  68; 6HR MAX TEMP:  75; 6HR PCP:  0.07;

GONZALES*      FAIR      77  70  77 SE5       29.87F
6HR MIN TEMP:  69; 6HR MAX TEMP:  77; 6HR PCP:  0.36;

HAMMOND*       CLOUDY    77  66  69 SE10      29.90S
HOUMA*         MOSUNNY   73  70  88 E12       29.87F
PORT FOURCHON* CLEAR     73  70  88 E15G28    29.89F

$$

LAZ041-044-053-054-181900-
SOUTHWEST LOUISIANA

CITY           SKY/WX    TMP DP  RH WIND       PRES   REMARKS
LAKE CHARLES   CLOUDY    73  68  84 SE6       29.87F
6HR MIN TEMP:  69; 6HR MAX TEMP:  75; 6HR PCP: TRACE;

LAFAYETTE      CLOUDY    76  68  76 VRB3      29.87F
6HR MIN TEMP:  68; 6HR MAX TEMP:  78; 6HR PCP:  0.10;

PATTERSON      CLOUDY    75  66  73 SE10G18   29.88F
6HR MIN TEMP:  68; 6HR MAX TEMP:  75;

SALT POINT       N/A     74  68  81 SE9G20    29.86F
6HR MIN TEMP:  68; 6HR MAX TEMP:  74; 6HR PCP:  0.36;

NEW IBERIA     CLOUDY    78  69  73 S15       29.87F
6HR MIN TEMP:  70; 6HR MAX TEMP:  79; 6HR PCP:  0.33;

CHENAULT AIRPK CLOUDY    73  68  83 SE7       29.87F

$$

LAZ027-028-181900-
CENTRAL LOUISIANA

CITY           SKY/WX    TMP DP  RH WIND       PRES   REMARKS
FORT POLK      CLOUDY    70  68  93 SE6       29.85F
6HR MIN TEMP:  67; 6HR MAX TEMP:  72; 6HR PCP:  0.02;

ALEXANDRIA INT LGT RAIN  69  67  93 S3        29.86F FOG
6HR MIN TEMP:  67; 6HR MAX TEMP:  70; 6HR PCP:  0.01;

ALEXANDRIA     CLOUDY    70  68  93 S3        29.87F
6HR MIN TEMP:  66; 6HR MAX TEMP:  70; 6HR PCP:  0.11;


$$

LAZ001-002-181900-
NORTHWEST LOUISIANA

CITY           SKY/WX    TMP DP  RH WIND       PRES   REMARKS
SHREVEPORT     CLOUDY    73  67  81 N8        29.86F
6HR MIN TEMP:  68; 6HR MAX TEMP:  74; 6HR PCP:  0.06;

BARKSDALE AFB  LGT RAIN  68  64  88 N1        29.86F
6HR MIN TEMP:  66; 6HR MAX TEMP:  72; 6HR PCP:  0.05;

DTN SHREVEPORT CLOUDY    70  64  81 N7        29.87F
6HR MIN TEMP:  66; 6HR MAX TEMP:  73; 6HR PCP:  0.24;


$$

LAZ014-016-181900-
NORTHEAST LOUISIANA

CITY           SKY/WX    TMP DP  RH WIND       PRES   REMARKS
MONROE         PTSUNNY   75  67  76 S8        29.87F
6HR MIN TEMP:  67; 6HR MAX TEMP:  77; 6HR PCP: TRACE;

TALLULAH       LGT RAIN  71  65  81 S6        29.91S
6HR MIN TEMP:  67; 6HR MAX TEMP:  71; 6HR PCP: TRACE;


$$




USA.gov is the U.S. government's official web portal to all federal, state and local government web resources and services.